Regional Weather Roundup
Issued by NWS

Home | Current Version | Previous Version | Text Only | Print | Product List | Glossary Off
Versions: 1 2 3 4 5 6 7 8 9 10 11 12 13 14 15 16 17 18 19 20 21 22 23 24 25 26 27 28 29 30 31 32 33 34 35 36 37 38 39 40 41 42 43 44 45 46 47 48 49 50

000
ASUS43 KIND 240309
RWRIN

WEATHER ROUNDUP FOR INDIANA
NATIONAL WEATHER SERVICE INDIANAPOLIS IN
1100 PM EDT SAT JUL 23 2016

NOTE: "FAIR" INDICATES FEW OR NO CLOUDS BELOW 12,000 FEET WITH NO
SIGNIFICANT WEATHER AND/OR OBSTRUCTIONS TO VISIBILITY.

* - STATION DOES NOT REPORT WEATHER SUCH AS PRECIPITATION OR FOG.

+ - STATION NOT QUALITY CONTROLLED BY THE NATIONAL WEATHER SERVICE.
    USE DATA WITH CAUTION...ESPECIALLY DEWPOINT AND RELATIVE
    HUMIDITY OBSERVATIONS.

INZ001>003-010>013-019-020-240400-
NORTHWEST INDIANA

CITY           SKY/WX    TMP DP  RH WIND       PRES   REMARKS
GARY /AIRPORT/ CLOUDY    75 N/A N/A SE9       29.95F
KNOX *+        CLOUDY    73  64  73 NE5       29.98S
LA PORTE +     CLOUDY    74  74 100 CALM      29.96F
MICHIGAN CITY+ CLOUDY    72  72 100 SE3       29.95F
MONTICELLO +   MOCLDY    81  75  82 CALM      29.98S
RENSSELAER +   CLOUDY    77  72  83 NE6       29.98S
VALPARAISO     CLOUDY    73  69  87 E7        29.96F

$$

LMZ046-743>745-240400-
SOUTHERN LAKE MICHIGAN

STATION/POSITION TIME  TEMP    WIND        PRES    WAVE
                       AIR SEA DIR/SP/G            HT
                 (UTC) (F)     (DEG/KT/KT) (MB)    (FT)
BURNS HARBOR     0301   77     130/  9/ 20 1013.9F
MICHIGAN CITY    0200   73      70/ 17/ 19   N/A
5NW MICH CITY    0300   76 73  140/ 12/ 16   N/A     3

$$

INZ004-005-014>016-021>024-240400-
NORTH CENTRAL INDIANA

CITY           SKY/WX    TMP DP  RH WIND       PRES   REMARKS
LOGANSPORT +   CLOUDY    77  77 100 CALM      30.01R
PERU/GRISSOM   MOCLDY    80  77  89 SW2       29.99R
ROCHESTER +    CLOUDY    82  79  89 CALM      30.00S
SOUTH BEND     LGT RAIN  74  74 100 E8        29.96F
WARSAW +       CLOUDY    77  70  78 SE5       30.00R

$$

INZ006>009-017-018-025>027-240400-
NORTHEAST INDIANA

CITY           SKY/WX    TMP DP  RH WIND       PRES   REMARKS
ANGOLA *+        N/A     77  72  83 CALM      30.00S
AUBURN +       CLOUDY    77  68  73 CALM      30.01R
FORT WAYNE     MOCLDY    77  75  93 SW5       30.00R
HUNTINGTON +   MOCLDY   N/A N/A N/A CALM      30.00R

$$

INZ028-029-035-036-043>045-051>053-240400-
WEST CENTRAL INDIANA

CITY           SKY/WX    TMP DP  RH WIND       PRES   REMARKS
CRAWFORDSVL +  CLEAR     74  74 100 CALM      30.00R
GREENCASTLE +  CLEAR     77  77 100 CALM      30.01R
LAFAYETTE      PTCLDY    78  77  96 CALM      29.98R
TERRE HAUTE    PTCLDY    81  76  84 CALM      29.98R

$$

INZ030>032-037>040-046>048-054>057-064-065-240400-
CENTRAL INDIANA

CITY           SKY/WX    TMP DP  RH WIND       PRES   REMARKS
FISHERS *+     MOCLDY    77  77 100 CALM      30.01R
FRANKFORT +    CLEAR    N/A N/A N/A CALM      30.03R
INDIANAPOLIS   PTCLDY    83  72  69 CALM      30.00R
-EAGLE CREEK   PTCLDY    83  76  79 CALM      30.00R
KOKOMO *+      PTCLDY    81  72  74 CALM      30.00S
MARION +       PTCLDY    75  73  92 CALM      30.01S
MT COMFORT *+  MOCLDY    77  75  94 CALM      30.02R
SHELBYVILLE    CLEAR     79  74  84 SE3       30.00R
ZIONSVILLE +   PTCLDY    76  75  95 CALM      30.03R

$$

INZ033-034-041-042-049-050-058-059-240400-
EAST CENTRAL INDIANA

CITY           SKY/WX    TMP DP  RH WIND       PRES   REMARKS
MUNCIE         PTCLDY    78  73  84 CALM      30.02R

$$

INZ060-061-067>069-081>083-085>088-240400-
SOUTHWEST INDIANA

CITY           SKY/WX    TMP DP  RH WIND       PRES   REMARKS
EVANSVILLE     CLEAR     82  76  81 CALM      29.98R
HUNTINGBURG *+ CLEAR     79  73  83 SE3       29.99S
WASHINGTON +   CLEAR     78  78 100 MISG      29.98R FOG

$$

INZ062-063-066-070>080-084-089>092-240400-
SOUTH CENTRAL AND SOUTHEAST INDIANA

CITY           SKY/WX    TMP DP  RH WIND       PRES   REMARKS
BLOOMINGTON    CLEAR     77  74  90 CALM      30.00R FOG
MADISON *+     CLEAR     79  75  89 CALM      30.03S
NORTH VERNON + CLEAR    N/A N/A N/A CALM      30.01R
SEYMOUR +      CLEAR     79  77  94 CALM      29.99R

$$





USA.gov is the U.S. government's official web portal to all federal, state and local government web resources and services.